RH
85 95 99 89 91 82 94 98 98 82 86 94 84 85 75 88 86 93 91 93 86 82 93 91 90 91 95 95 94 96 96 96 94 92 94 93 94 96 96 95 89 89 88 86
94 95 77 85 81 89 87 98 94 78 79 90 88 88 84 96 91 87 86 86 84 85 98 97 96 95 94 94 92 93 91 94 92 89 89 88 94 94 86 91 87 85 84 85
93 74 79 86 96 98 96 99 92 92 88 88 90 88 88 96 96 92 88 84 84 84 95 97 97 96 94 93 94 89 87 89 90 89 87 85 90 93 94 95 93 89 84 83
88 82 89 94 100 94 99 95 77 91 87 99 92 98 91 97 95 97 94 92 81 84 91 90 92 95 89 90 90 91 89 88 88 88 82 81 82 88 92 91 93 90 86 86
80 93 90 98 91 87 99 83 82 87 94 96 100 99 92 97 92 87 98 94 85 82 83 86 91 90 87 87 90 92 90 87 85 85 81 79 81 86 90 93 88 90 91 87
84 79 85 83 80 78 76 81 81 87 88 98 100 99 89 97 87 90 85 88 84 76 70 80 94 93 88 90 88 89 93 90 90 88 90 89 86 88 92 92 86 89 94 93
73 89 84 73 90 85 91 89 98 94 96 98 96 97 86 73 73 81 87 85 91 74 71 78 91 92 81 92 92 92 91 92 92 92 94 93 93 89 89 84 81 92 91 96
91 78 88 82 75 80 92 90 91 93 95 94 95 97 77 66 56 67 79 85 87 85 81 83 81 85 82 84 89 94 94 93 92 92 92 90 90 87 83 77 78 82 79 83
96 85 85 73 64 71 82 89 75 78 84 93 94 80 55 59 74 68 82 88 92 85 82 87 90 85 81 80 84 91 91 90 92 91 90 90 85 87 80 81 81 81 87 86
88 87 76 67 56 59 72 67 76 76 90 84 83 80 63 72 79 73 74 88 89 89 87 87 92 92 86 82 84 90 88 86 86 91 90 89 86 83 84 88 84 87 85 90
91 82 75 64 65 80 77 75 74 66 78 84 73 61 55 48 59 70 65 73 86 90 88 89 91 91 91 92 94 94 91 89 87 87 89 87 90 91 92 90 86 84 84 87
90 88 86 71 59 65 71 67 74 75 68 78 76 57 45 44 51 67 70 74 86 88 88 89 90 92 94 95 94 95 94 91 88 84 85 86 85 88 92 91 88 88 88 89
89 90 91 78 66 64 68 58 59 63 63 71 76 56 40 46 59 57 64 77 85 92 94 94 96 95 94 94 94 96 96 94 94 92 90 90 89 89 92 92 92 96 95 95
83 93 87 78 72 70 71 61 58 57 76 77 65 58 46 44 40 44 71 86 86 92 99 99 99 98 96 96 93 96 99 97 96 95 94 95 97 96 97 98 98 98 98 99
92 99 90 87 84 86 76 64 58 57 56 63 67 55 46 53 52 56 67 87 96 99 99 98 98 99 99 99 99 99 99 99 97 97 98 98 97 95 95 97 95 95 94 93
94 98 95 96 77 81 83 77 66 56 54 48 56 53 44 53 59 58 54 76 83 93 98 98 97 97 98 98 98 99 99 99 97 98 99 97 97 97 98 98 97 97 96 97
99 99 99 97 88 88 92 82 71 67 58 50 58 45 46 44 47 45 46 66 67 74 90 97 97 94 95 97 96 98 98 98 98 98 99 98 97 98 96 95 95 96 95 94
98 98 99 98 95 99 66 66 72 62 53 57 55 55 55 49 50 48 49 50 56 75 86 94 96 96 96 96 96 94 94 95 97 96 93 93 92 92 90 89 89 88 87 89
92 98 98 100 98 83 63 68 74 77 75 70 71 66 73 67 64 61 67 71 76 82 86 93 95 95 94 91 88 87 89 91 90 92 90 87 84 85 82 82 78 74 79 79
97 97 98 98 97 98 70 75 72 68 86 61 67 68 76 71 71 65 68 69 73 82 90 95 95 93 85 85 84 88 90 87 88 82 78 76 78 78 81 77 74 70 70 75
96 97 95 94 96 90 73 68 71 84 77 62 63 73 74 75 72 64 67 71 72 76 80 81 85 90 86 75 78 81 81 83 77 74 70 68 66 67 66 66 64 68 72 78
90 95 96 97 97 92 69 81 76 77 74 69 71 72 73 72 63 63 63 68 75 75 72 72 78 81 84 80 78 80 79 74 71 63 62 60 59 54 59 65 69 70 77 79
91 80 84 80 75 61 72 81 88 82 73 73 72 71 66 74 66 63 64 68 66 69 67 65 67 75 79 76 74 75 75 72 72 68 68 63 59 60 63 69 76 74 81 83
85 91 90 80 70 66 57 78 78 79 77 75 72 70 68 67 66 64 63 66 68 65 63 61 62 67 70 70 65 72 69 70 68 69 74 73 74 78 77 71 72 80 86 87
78 80 80 88 78 69 67 69 58 69 71 72 71 72 65 68 66 65 66 65 65 61 59 60 61 61 68 69 70 66 66 66 66 72 75 74 78 82 80 75 78 73 85 79
87 76 70 65 52 68 66 76 73 67 61 55 60 60 64 69 69 69 70 69 66 63 61 61 60 63 70 70 71 71 69 67 68 71 71 73 70 72 73 78 83 69 69 66
Wind_Speed
1 2 6 10 8 7 3 5 15 7 8 4 3 6 7 9 14 16 16 16 16 16 9 15 14 14 13 11 13 12 11 11 9 9 8 5 6 3 3 4 6 6 5 6
3 6 7 5 6 4 11 9 10 3 18 5 8 6 4 9 9 18 21 16 17 14 11 14 14 15 16 15 13 14 12 12 9 8 7 3 4 2 3 4 5 6 7 6
2 5 2 2 2 12 8 13 14 7 12 6 5 5 1 2 6 7 13 17 17 18 16 16 16 16 16 16 16 15 14 13 11 8 5 4 4 4 3 2 3 5 7 7
6 0 0 4 9 3 4 14 18 14 6 4 4 2 3 3 9 7 10 11 14 14 11 13 15 15 20 16 14 14 14 14 11 11 10 11 9 6 4 4 3 4 6 7
3 3 5 4 2 3 2 7 13 11 8 6 2 2 3 8 6 10 6 10 15 17 15 14 14 15 13 14 15 13 13 13 12 13 12 9 8 4 3 3 7 6 5 6
4 3 2 3 5 3 6 7 8 5 4 2 3 2 5 7 15 19 16 12 14 15 15 12 8 10 11 11 16 17 15 14 13 13 10 9 7 7 5 5 6 5 4 4
2 3 2 3 4 5 0 4 3 4 4 1 8 5 9 5 9 17 18 18 12 13 15 13 12 14 14 12 14 13 17 15 15 14 13 13 11 10 10 9 8 7 5 3
3 7 3 2 1 2 2 2 1 6 5 4 2 8 8 10 11 9 16 14 13 12 16 18 17 12 14 14 15 15 15 15 15 16 15 13 12 9 9 11 7 7 7 6
3 3 1 5 2 2 2 3 2 4 3 4 6 7 9 3 7 13 15 18 20 19 14 15 14 14 14 15 18 15 15 14 13 15 13 12 11 11 10 8 6 6 5 5
1 3 3 3 4 3 4 4 4 1 4 4 1 4 6 4 11 11 14 17 17 17 16 13 14 16 15 16 15 14 15 17 14 14 12 11 11 10 9 8 9 8 7 7
3 2 3 2 7 7 1 3 1 1 1 2 0 5 5 6 5 13 14 12 10 12 15 14 15 14 15 13 13 13 14 13 13 14 13 12 10 9 7 9 9 10 9 9
2 2 4 10 3 4 7 8 5 4 2 3 2 6 1 7 5 3 7 5 5 9 13 13 14 14 14 14 12 11 11 12 11 10 12 12 11 12 11 10 9 8 9 7
2 3 3 7 6 3 4 6 6 4 3 4 3 5 2 5 3 3 7 6 5 6 6 7 7 11 13 12 12 12 12 12 11 11 11 11 11 11 11 10 9 8 8 8
0 3 5 6 4 1 3 5 5 6 5 5 7 5 5 5 5 3 2 3 5 8 10 7 8 10 10 9 12 11 8 9 10 10 10 10 8 7 6 6 6 6 4 4
1 5 3 6 8 4 4 5 7 11 9 10 6 14 13 4 4 2 3 3 4 5 7 10 12 9 8 8 6 5 6 7 8 9 8 7 6 6 6 5 5 5 4 5
3 5 3 5 8 9 9 8 8 13 7 15 5 12 7 5 2 5 7 7 8 9 11 11 11 12 13 13 12 10 9 8 8 9 8 7 7 7 6 6 6 4 5 3
1 2 1 6 3 3 7 12 16 7 6 8 12 14 7 7 8 9 7 7 10 9 9 12 13 12 9 9 10 12 10 9 9 9 8 8 8 7 6 6 6 5 5 4
2 1 2 4 2 5 2 2 2 14 14 10 7 2 4 5 4 8 6 6 10 7 6 7 7 6 7 6 8 10 9 8 6 7 8 7 6 7 6 6 5 5 3 4
7 1 3 3 3 9 9 3 2 5 5 1 4 2 2 6 4 4 6 7 6 5 5 6 6 7 8 11 10 10 9 9 9 6 7 7 7 7 7 7 7 5 5 4
6 4 3 1 5 8 4 1 1 2 4 3 2 3 3 4 1 1 5 6 7 6 3 3 5 5 9 7 9 9 9 9 8 8 7 6 6 7 6 6 6 3 5 5
4 3 12 9 6 8 7 3 2 4 3 3 3 2 3 1 3 6 6 4 4 4 3 4 6 6 6 7 9 9 8 7 7 8 8 7 6 6 6 5 3 4 5 6
7 7 5 4 5 10 5 3 7 4 0 1 1 2 3 2 4 4 6 5 5 5 5 4 6 7 6 6 7 7 7 5 6 8 8 7 6 5 4 6 4 5 5 7
4 8 6 9 8 3 3 3 2 3 2 3 2 1 0 2 2 2 1 3 3 3 3 4 6 7 5 6 6 9 5 7 7 7 7 7 6 6 5 6 5 5 5 5
5 4 3 2 7 11 10 3 4 6 6 3 3 4 2 4 2 3 2 2 2 3 4 2 6 6 5 5 5 7 7 7 7 8 7 6 6 6 5 4 4 4 4 4
3 7 7 5 9 7 8 7 7 7 4 3 3 3 5 4 5 4 4 4 4 4 3 4 5 6 6 5 6 6 6 7 7 7 6 5 4 5 5 4 4 4 2 4
6 8 6 10 7 5 6 1 1 5 5 3 3 4 4 4 7 3 5 5 6 5 4 4 4 6 5 6 6 6 5 6 7 7 5 5 5 4 5 5 5 8 8 9
Wind_Direction
199 122 218 222 231 286 45 306 295 181 128 273 21 18 313 243 170 162 170 157 163 165 150 157 157 159 156 159 161 164 165 169 160 165 159 156 171 150 157 164 167 165 164 167
9 246 239 241 231 231 257 281 274 202 153 145 331 322 308 199 182 170 171 164 161 156 147 154 160 167 172 167 171 170 175 171 172 173 175 157 142 146 162 164 167 170 168 172
248 270 95 154 296 272 252 239 238 154 133 117 302 340 80 104 143 170 191 165 167 167 164 166 168 176 174 178 178 176 176 176 175 168 131 103 92 75 105 178 164 182 169 170
241 205 119 236 250 312 220 258 166 133 124 114 85 295 102 192 160 162 190 175 172 178 176 173 172 177 187 184 179 180 179 176 174 161 172 171 177 170 181 159 167 167 176 177
301 335 292 289 239 192 317 44 89 93 81 114 90 293 210 184 189 200 200 193 185 187 179 179 181 184 185 181 185 182 179 178 173 176 182 182 174 155 138 143 170 178 184 184
256 275 250 291 348 189 182 94 85 60 84 59 106 64 268 182 173 194 199 195 192 188 189 177 172 162 176 187 191 188 181 179 169 177 168 165 186 157 147 167 183 184 182 185
318 248 200 199 61 316 63 2 47 48 47 103 155 198 238 213 187 186 191 189 188 185 190 194 175 181 183 192 191 184 185 184 175 181 184 185 182 179 179 191 190 179 180 185
144 338 186 266 147 311 110 78 226 156 159 148 198 245 251 221 209 178 178 182 186 191 187 198 200 191 192 196 196 184 182 183 183 185 193 192 191 191 197 201 189 191 194 197
153 247 209 162 156 135 291 301 237 105 144 136 201 262 289 200 225 176 174 181 192 197 191 187 186 193 199 208 207 194 185 186 190 192 195 191 185 190 200 183 175 182 171 180
275 328 185 202 117 239 170 306 339 2 127 235 219 288 242 235 210 199 190 187 192 192 195 189 184 190 195 206 204 195 189 189 190 191 193 189 185 187 188 175 184 183 185 183
284 180 301 128 194 167 112 309 329 135 110 195 325 275 216 262 245 212 206 203 187 188 200 193 192 195 197 196 191 196 185 189 192 189 188 182 174 178 181 197 186 193 192 197
320 291 219 220 248 195 174 188 160 114 232 20 13 292 342 263 261 228 240 222 211 193 192 192 193 187 189 189 187 183 177 180 181 176 181 187 186 183 188 201 196 194 202 192
23 263 326 344 358 1 207 191 153 104 82 197 145 256 316 316 294 251 211 203 187 188 193 189 180 191 194 194 185 177 179 183 170 165 171 180 184 183 190 193 193 186 193 195
29 257 220 201 200 102 203 201 178 154 173 166 207 264 265 291 15 12 265 223 205 187 178 176 179 194 196 196 195 181 169 163 165 166 174 174 170 173 165 152 159 158 153 157
274 252 266 265 261 270 244 237 194 204 209 205 160 207 250 207 237 199 162 199 195 211 216 191 189 179 165 161 159 157 160 156 156 157 156 153 128 112 107 105 106 114 118 103
335 283 316 265 247 238 249 222 223 235 222 241 207 251 211 233 208 259 232 194 214 213 210 212 210 184 180 176 170 159 162 166 154 151 148 132 127 129 129 132 123 118 112 125
234 277 225 259 4 327 278 215 219 220 196 206 219 247 180 226 229 246 255 227 243 234 212 201 201 201 196 191 174 174 161 146 145 133 127 132 133 127 127 123 122 139 121 114
256 236 268 274 353 241 243 302 273 228 237 209 255 131 187 232 254 265 245 225 255 263 233 211 180 155 134 123 124 123 125 117 122 125 121 112 119 119 119 120 118 121 126 142
201 172 288 250 246 319 312 13 176 172 274 154 235 52 294 303 278 272 10 0 325 305 249 201 165 140 145 142 138 123 117 117 122 134 132 128 136 131 138 136 136 135 130 119
179 238 219 321 238 220 256 329 311 270 295 36 28 11 336 335 175 234 349 330 327 335 340 160 135 118 134 130 130 131 135 137 143 144 135 124 133 137 144 139 143 122 131 129
158 195 223 226 253 283 250 258 299 109 213 13 358 354 4 32 241 286 337 356 336 337 10 100 99 114 115 121 124 124 131 133 128 124 123 122 113 116 114 107 89 115 116 110
176 171 195 178 222 264 170 107 180 204 9 313 6 8 330 273 310 309 334 3 27 40 38 59 96 104 102 104 108 112 114 116 108 116 111 106 105 111 111 114 112 111 116 116
220 199 186 193 210 265 240 202 231 159 171 286 281 259 129 257 286 297 328 10 27 61 75 68 98 96 76 88 111 119 130 120 112 103 106 111 109 112 122 128 125 123 123 129
241 161 219 59 258 234 240 243 223 207 224 250 261 299 274 267 233 244 210 174 148 129 111 83 109 107 103 107 104 119 133 123 119 120 120 119 117 114 112 110 111 116 123 128
197 151 186 265 278 283 254 225 218 201 222 240 265 237 251 263 264 213 206 204 188 167 137 142 139 130 131 120 110 124 129 129 124 119 121 121 116 116 115 107 124 120 118 134
189 203 212 244 244 199 251 253 152 140 186 189 260 282 266 234 255 217 211 195 177 175 149 144 145 129 139 131 126 124 128 127 129 129 133 140 126 129 124 122 117 124 127 126